Wind_Speed
7 7 6 6 5 4 3 4 4 4 5 5 5 5 4 4 4 4 4 6 7 9 11 13 15 17 19 21 23 25 26 28 29 30 32 33 34 36 37 38 39 40 41 42 42 42 42 43 44
13 12 11 10 10 9 9 9 9 9 8 7 6 6 4 4 5 6 7 10 11 13 15 17 19 21 23 25 26 28 29 30 32 33 34 35 37 38 39 40 42 43 44 45 46 47 48 48 48
17 16 15 14 14 13 12 11 11 11 9 8 7 5 4 5 7 9 12 14 16 17 19 21 22 24 25 26 28 29 31 32 34 36 37 38 39 40 41 43 44 45 47 48 49 50 51 52 53
18 18 16 15 15 14 14 14 12 10 8 6 4 4 5 8 11 13 16 17 19 20 22 24 25 26 28 29 31 33 35 37 39 40 42 43 44 45 46 48 49 51 52 54 55 56 57 57 58
18 17 17 16 15 14 13 11 9 7 5 4 5 7 9 13 16 18 19 20 22 23 25 26 28 30 32 34 36 38 40 43 45 47 49 50 51 53 55 56 58 59 61 62 63 64 64 64 64
18 16 16 14 13 11 9 7 5 4 5 8 11 12 14 17 19 20 21 23 24 26 28 29 32 34 36 38 41 44 46 49 52 54 56 58 60 61 63 65 67 68 69 70 71 72 72 72 72
15 14 12 10 9 7 6 5 6 8 10 12 14 16 17 19 20 21 23 25 26 28 30 32 34 37 39 42 45 48 51 54 57 59 61 64 66 69 71 74 75 77 79 80 81 81 81 80 80
11 9 7 6 6 6 6 7 9 11 13 15 17 18 19 20 21 23 25 28 29 31 33 36 38 41 43 46 50 52 55 58 61 64 66 69 72 75 78 80 83 85 87 89 90 90 90 89 88
7 5 5 6 7 8 10 11 13 14 16 17 18 19 20 21 22 25 27 30 32 34 37 40 43 46 49 52 55 58 61 64 67 70 72 75 78 81 84 87 90 92 94 95 96 97 97 96 95
5 5 7 9 11 12 14 15 15 16 16 17 18 19 19 21 23 26 28 31 34 37 40 43 46 50 53 56 59 62 65 68 72 74 77 81 84 87 90 93 96 98 99 100 100 100 100 99 98
9 9 11 13 14 15 16 16 16 16 16 17 18 18 20 22 25 28 31 35 38 41 44 47 50 53 55 58 61 64 68 71 74 77 81 84 88 92 96 99 100 101 101 100 99 99 99 98 97
12 13 14 15 15 16 15 15 15 15 16 16 18 20 22 25 27 31 34 38 41 45 48 50 52 54 56 60 63 66 70 73 76 80 84 88 93 97 100 102 103 102 100 98 96 94 93 92 91
13 14 14 14 14 14 14 14 14 14 16 18 21 23 25 28 31 34 38 41 45 47 49 51 53 55 58 62 65 69 72 75 79 84 89 93 98 101 102 101 100 97 94 91 89 87 86 84 84
12 12 13 13 13 14 14 14 14 16 18 21 24 26 29 31 34 37 41 44 46 48 50 52 54 57 61 64 68 71 74 78 83 88 93 97 100 100 99 95 91 88 85 83 82 81 80 79 78
11 11 12 13 14 14 15 16 17 19 22 25 28 30 32 35 37 40 43 45 47 49 51 52 55 59 63 67 70 73 77 81 87 91 95 98 98 95 90 86 83 81 80 79 79 77 76 74 73
11 12 13 14 15 16 17 19 21 23 26 28 31 33 35 37 40 42 44 45 47 49 51 53 57 62 65 69 72 76 80 85 90 93 96 96 92 87 83 80 79 79 78 77 74 71 68 67 66
12 13 14 15 17 18 20 22 24 26 28 31 33 35 37 39 40 41 43 45 47 49 52 56 60 64 67 71 74 78 83 88 92 95 95 90 85 81 79 79 79 79 76 73 69 66 64 62 62
13 14 16 17 18 19 21 24 27 29 31 32 33 35 36 37 39 40 43 45 48 51 54 58 61 65 69 72 76 81 85 89 93 94 90 84 80 79 79 79 78 76 73 71 70 69 68 66 64
13 15 17 18 19 20 22 25 28 30 31 31 32 33 34 36 38 41 43 46 49 52 56 59 63 67 70 73 77 82 86 90 93 90 85 80 78 78 78 78 75 73 74 75 75 74 73 73 72
14 15 17 18 21 22 23 25 28 28 28 29 29 31 33 36 39 42 45 47 51 54 57 61 64 68 71 75 79 82 87 90 90 86 81 78 78 78 78 76 74 75 76 73 70 68 67 67 71
13 15 17 19 20 21 23 23 25 26 26 27 29 32 35 38 40 43 45 48 52 55 58 62 66 69 72 76 80 83 88 90 87 82 78 77 78 79 77 75 76 77 73 68 64 61 59 58 60
12 15 17 19 20 22 23 23 25 27 28 30 31 34 36 39 41 43 46 49 53 55 59 63 67 70 73 76 80 84 87 87 84 79 77 77 78 77 75 76 77 75 68 62 57 53 50 48 48
11 14 16 17 19 21 23 24 27 29 31 32 33 35 38 39 41 44 47 50 53 56 59 64 68 70 73 77 80 84 86 85 81 77 76 76 77 75 74 76 76 70 62 57 54 49 43 38 36
10 13 14 16 19 21 24 26 29 32 33 35 37 38 40 41 42 45 48 51 53 56 60 64 68 71 73 77 81 84 85 82 79 76 75 75 75 73 74 76 73 64 57 53 50 46 39 32 26
9 11 13 17 20 22 24 28 31 33 36 39 41 42 43 44 45 47 49 51 53 56 60 65 68 70 73 77 81 84 83 80 77 74 74 74 73 72 73 75 70 59 52 47 44 40 36 31 23
8 11 14 17 19 21 25 29 32 35 39 41 43 45 47 48 49 50 51 53 54 57 61 65 68 70 73 77 80 83 82 79 75 73 73 73 72 71 73 75 68 56 48 42 37 33 32 30 26
8 10 13 14 17 20 24 28 32 36 39 42 44 47 50 53 54 55 55 55 55 58 61 65 68 70 73 76 80 82 80 77 74 72 72 72 71 70 73 74 68 54 45 38 33 28 26 25 23
7 10 12 15 19 22 25 28 32 36 39 42 46 49 53 56 58 59 58 57 57 59 62 66 68 69 72 76 79 81 79 75 72 71 71 71 70 69 72 74 69 55 45 36 30 25 20 18 16
9 11 13 16 20 24 27 29 31 35 38 42 47 51 54 58 60 62 62 61 59 60 63 66 68 69 72 76 79 79 78 74 71 70 69 69 69 68 70 73 70 57 46 37 30 25 20 16 12
11 13 14 17 19 22 25 29 32 35 39 43 47 51 55 59 62 64 66 65 63 62 64 66 68 69 72 75 78 78 77 73 70 68 68 68 68 67 69 72 71 61 49 40 32 26 22 19 15
Wind_Direction
121 125 130 126 126 129 135 137 131 113 97 89 81 72 63 46 28 18 9 356 343 332 327 322 318 315 312 309 306 303 301 299 297 295 293 291 290 289 287 285 284 283 281 280 278 276 274 271 269
104 106 108 109 107 107 109 110 108 104 103 98 94 87 76 49 19 1 349 341 335 329 325 320 316 313 310 307 305 303 301 300 298 296 294 293 291 289 288 286 285 283 282 280 278 276 274 272 270
101 103 106 107 108 110 110 109 108 110 107 102 97 81 51 11 353 345 341 336 332 327 322 318 315 312 309 307 306 304 303 301 300 298 295 293 292 290 289 288 286 285 284 283 281 279 276 274 271
101 105 108 111 114 114 113 112 110 109 104 95 74 36 6 352 344 340 337 332 328 324 321 318 315 313 311 310 309 308 306 304 302 299 297 294 293 291 290 289 288 287 286 285 283 282 279 277 274
102 105 109 114 114 112 111 107 101 96 81 43 14 356 345 340 338 336 332 329 325 323 320 318 316 315 314 313 311 309 308 307 305 303 301 298 296 295 293 292 290 289 288 287 285 283 282 279 276
102 102 105 105 103 100 97 87 73 36 8 356 349 341 336 333 332 330 328 326 323 320 318 317 317 317 316 314 313 312 311 310 308 306 304 301 299 297 295 293 291 289 287 286 284 283 281 279 277
100 97 95 90 87 77 61 36 9 353 345 340 336 331 330 328 328 326 325 323 320 318 318 318 318 316 315 314 314 313 311 309 307 305 303 301 299 296 294 292 290 289 287 286 284 283 281 278 276
96 90 78 63 47 27 6 347 337 333 330 329 328 326 326 327 327 326 324 322 321 320 321 320 318 317 316 315 314 313 311 309 307 306 303 301 299 297 295 293 292 290 289 287 286 284 283 281 278
76 63 32 9 354 344 337 330 328 326 324 323 323 324 325 326 325 324 322 321 322 323 323 322 320 319 318 317 315 314 312 310 308 306 304 302 301 299 297 296 294 293 291 290 288 286 284 282 279
16 353 344 338 332 328 325 322 321 320 320 319 319 322 324 324 324 323 322 323 324 324 324 322 320 319 317 316 315 313 312 310 309 307 306 304 303 301 299 298 297 295 294 292 290 288 286 283 280
329 328 327 324 323 321 319 318 317 318 318 318 319 322 324 325 324 323 323 324 324 324 323 322 320 318 317 315 314 313 312 311 310 308 307 305 303 301 300 298 297 296 294 292 290 288 286 283 279
318 320 320 320 319 318 318 318 318 318 319 319 321 324 326 326 325 324 324 324 324 324 323 322 320 318 317 316 315 314 313 312 310 309 307 305 304 302 300 299 298 296 294 292 290 287 284 281 277
317 319 320 322 323 322 321 321 322 322 323 322 323 325 326 326 324 323 323 323 323 323 322 321 319 318 317 316 316 315 314 313 312 310 309 307 305 302 301 300 298 296 294 292 289 286 282 279 275
325 327 330 331 331 330 328 328 327 326 324 322 323 324 326 324 323 323 323 323 323 323 321 320 319 318 318 317 317 316 315 314 314 312 311 308 305 303 302 301 300 297 295 292 289 286 282 278 275
340 341 341 341 340 337 333 331 329 326 324 323 323 324 325 323 323 323 323 323 322 321 320 319 319 319 318 318 318 317 317 316 315 313 311 308 307 307 306 305 303 300 297 294 291 287 282 278 273
352 351 350 347 344 340 335 331 328 326 325 324 324 325 324 323 323 323 322 322 321 320 319 319 320 320 320 320 320 320 319 318 316 314 312 312 312 311 310 308 306 303 300 296 292 287 282 276 271
359 355 352 350 347 341 335 330 328 326 326 326 326 326 324 323 323 322 321 321 320 320 320 320 321 321 321 322 322 322 321 320 318 316 316 316 316 315 314 312 309 306 302 298 293 287 281 275 269
359 356 353 351 347 341 334 329 329 328 328 328 328 326 324 323 322 321 321 321 322 321 321 321 322 322 323 324 324 324 323 321 320 319 319 320 319 318 317 315 312 308 304 299 293 287 280 274 268
358 357 354 350 346 341 335 330 331 332 332 331 330 327 325 324 323 323 323 323 323 323 323 323 324 324 325 326 326 326 324 323 322 322 322 322 322 321 319 317 314 311 307 301 295 288 280 272 266
360 359 356 353 347 343 340 336 338 340 339 337 334 330 327 325 325 325 326 325 325 324 324 325 325 326 327 328 328 327 326 325 325 325 325 325 325 324 323 321 319 315 312 307 301 294 286 276 266
3 2 359 356 354 351 351 348 350 351 348 344 339 334 329 328 327 327 327 327 326 326 326 326 327 329 330 330 330 329 328 327 327 328 328 328 328 327 327 326 324 321 318 313 309 302 293 282 270
8 10 7 3 1 2 2 4 1 359 355 349 343 337 333 331 331 330 329 328 327 327 327 328 329 331 332 332 331 332 331 330 330 331 331 331 331 331 331 331 329 327 324 322 320 315 305 292 277
16 17 15 13 12 11 12 11 8 5 1 355 349 344 341 337 335 333 331 330 329 329 329 330 332 333 334 334 334 334 333 332 333 334 334 334 334 335 335 336 334 332 331 330 330 328 321 308 290
24 25 23 22 22 20 18 16 14 12 8 4 359 354 349 344 340 337 335 333 332 332 332 333 334 335 335 336 336 335 335 335 335 336 336 337 338 339 340 340 339 337 336 337 338 340 339 331 312
25 28 28 28 26 26 20 20 19 16 14 11 7 2 357 352 347 342 339 337 336 335 335 335 337 337 337 338 338 338 337 337 338 338 339 341 342 342 344 345 344 341 340 341 343 349 357 358 349
16 23 27 28 26 24 22 21 19 18 16 14 10 7 3 359 354 349 344 341 339 338 337 338 338 339 339 340 340 340 340 339 340 340 342 344 345 346 348 349 349 346 344 344 346 355 7 12 13
2 13 20 21 21 19 19 17 16 15 15 12 10 7 5 3 359 354 349 345 342 340 340 340 340 341 341 342 342 342 342 342 342 343 344 346 348 349 351 353 353 350 347 344 346 354 8 16 21
345 358 3 7 10 12 11 11 10 11 9 8 7 5 4 3 1 357 353 348 344 343 342 342 342 343 343 343 344 344 344 344 344 345 347 349 350 352 354 356 356 354 350 346 344 347 353 2 9
328 340 350 357 360 0 3 2 4 4 4 3 3 2 1 1 0 358 355 351 347 344 343 343 344 344 345 345 346 346 346 345 346 348 349 351 353 354 356 358 359 358 354 348 342 337 334 334 334
311 325 336 345 351 353 355 353 358 359 0 0 360 359 359 359 359 358 356 353 349 346 345 345 345 346 347 347 347 348 348 347 348 350 351 353 355 356 358 360 1 1 359 354 345 336 327 319 311
Height
5883 5883 5884 5886 5888 5888 5888 5888 5888 5888 5888 5888 5887 5887 5886 5886 5886 5887 5884 5881 5880 5879 5877 5876 5874 5872 5870 5867 5865 5863 5860 5858 5856 5853 5851 5849 5847 5844 5842 5840 5839 5838 5836 5835 5835 5834 5833 5833 5833
5884 5884 5886 5887 5888 5888 5889 5889 5889 5889 5889 5888 5888 5887 5887 5886 5885 5884 5882 5881 5879 5878 5876 5874 5871 5869 5867 5864 5861 5858 5856 5853 5850 5847 5844 5841 5839 5836 5834 5831 5830 5828 5827 5826 5825 5825 5824 5824 5824
5886 5887 5888 5888 5889 5889 5890 5889 5889 5889 5889 5889 5889 5888 5887 5886 5885 5883 5881 5879 5877 5875 5873 5870 5868 5865 5863 5860 5857 5853 5850 5847 5843 5840 5836 5833 5830 5827 5824 5822 5819 5817 5816 5814 5814 5813 5813 5813 5813
5889 5890 5890 5890 5890 5890 5890 5890 5890 5890 5890 5890 5889 5888 5887 5886 5884 5882 5879 5876 5874 5872 5869 5866 5863 5861 5857 5854 5850 5847 5843 5839 5836 5832 5828 5824 5820 5817 5813 5810 5807 5805 5803 5801 5800 5799 5799 5799 5799
5892 5892 5892 5891 5891 5892 5891 5891 5891 5891 5891 5890 5889 5887 5886 5884 5881 5878 5876 5873 5870 5867 5864 5861 5858 5854 5851 5847 5843 5839 5835 5830 5826 5822 5817 5813 5808 5804 5800 5796 5793 5790 5787 5785 5784 5783 5782 5782 5783
5896 5896 5895 5895 5894 5894 5893 5893 5892 5892 5891 5889 5888 5886 5884 5881 5878 5875 5873 5870 5867 5863 5860 5856 5852 5848 5844 5840 5835 5831 5826 5820 5815 5810 5805 5800 5795 5790 5785 5781 5777 5773 5769 5767 5765 5764 5763 5763 5764
5899 5898 5898 5897 5897 5896 5895 5893 5892 5891 5890 5888 5886 5883 5881 5878 5876 5872 5869 5866 5863 5859 5855 5851 5847 5842 5838 5833 5828 5822 5817 5811 5805 5799 5793 5786 5780 5774 5768 5763 5757 5753 5748 5745 5742 5740 5740 5740 5741
5900 5900 5899 5898 5897 5896 5894 5893 5891 5889 5888 5885 5883 5881 5878 5876 5872 5869 5865 5861 5858 5854 5849 5845 5840 5835 5830 5824 5818 5812 5806 5800 5793 5786 5779 5772 5765 5757 5750 5742 5735 5729 5723 5718 5714 5712 5711 5711 5712
5901 5901 5898 5897 5896 5894 5892 5890 5889 5887 5885 5883 5880 5878 5876 5873 5869 5866 5862 5857 5853 5848 5843 5838 5832 5826 5820 5814 5808 5801 5794 5787 5779 5771 5763 5755 5746 5737 5727 5718 5709 5701 5694 5688 5683 5680 5678 5678 5680
5901 5899 5898 5896 5894 5892 5890 5888 5886 5885 5883 5880 5878 5876 5873 5870 5866 5862 5858 5853 5848 5842 5837 5831 5825 5819 5812 5805 5798 5790 5783 5774 5765 5756 5746 5736 5725 5714 5703 5693 5682 5673 5664 5656 5650 5646 5644 5644 5645
5899 5897 5896 5894 5892 5890 5888 5886 5884 5882 5880 5878 5876 5873 5870 5867 5863 5858 5852 5847 5841 5836 5830 5824 5817 5811 5804 5796 5789 5780 5771 5761 5751 5741 5730 5719 5707 5694 5681 5668 5657 5646 5636 5627 5620 5614 5610 5609 5609
5898 5895 5894 5892 5890 5888 5886 5884 5882 5880 5878 5875 5873 5870 5867 5863 5858 5853 5847 5841 5835 5829 5823 5816 5809 5802 5794 5786 5778 5769 5759 5748 5737 5726 5713 5700 5687 5672 5657 5643 5630 5618 5608 5599 5591 5585 5580 5577 5575
5896 5894 5891 5889 5887 5885 5883 5881 5879 5877 5875 5872 5869 5866 5863 5858 5853 5847 5841 5834 5828 5822 5815 5808 5801 5793 5785 5776 5766 5756 5745 5733 5721 5708 5694 5679 5663 5647 5631 5616 5603 5591 5580 5571 5562 5556 5551 5548 5546
5894 5892 5890 5888 5885 5883 5881 5879 5877 5874 5871 5868 5865 5862 5858 5853 5847 5841 5834 5828 5821 5815 5807 5800 5792 5784 5775 5765 5754 5743 5731 5718 5704 5689 5672 5655 5637 5620 5605 5590 5576 5564 5554 5544 5536 5528 5524 5520 5517
5892 5891 5889 5886 5884 5881 5879 5877 5874 5871 5868 5865 5861 5857 5852 5846 5840 5834 5828 5821 5815 5808 5801 5793 5784 5775 5764 5753 5742 5729 5716 5702 5686 5669 5650 5631 5611 5594 5579 5564 5551 5539 5528 5518 5509 5502 5496 5493 5491
5891 5889 5887 5885 5882 5879 5879 5875 5872 5868 5865 5861 5857 5852 5846 5840 5834 5828 5822 5815 5809 5801 5793 5784 5775 5764 5753 5741 5728 5714 5699 5683 5666 5647 5626 5606 5587 5571 5555 5541 5528 5515 5503 5492 5483 5476 5470 5467 5465
5890 5888 5886 5884 5880 5877 5875 5872 5869 5865 5861 5857 5852 5846 5840 5835 5829 5823 5817 5810 5802 5794 5785 5776 5765 5754 5741 5728 5714 5699 5683 5665 5645 5623 5602 5583 5566 5550 5535 5520 5505 5491 5479 5467 5458 5451 5446 5443 5441
5889 5887 5884 5882 5879 5876 5872 5868 5865 5861 5857 5852 5847 5841 5835 5830 5824 5818 5811 5804 5795 5786 5776 5766 5755 5743 5730 5716 5700 5683 5665 5645 5624 5602 5581 5564 5548 5532 5516 5500 5484 5469 5456 5444 5434 5426 5421 5417 5416
5888 5886 5883 5880 5877 5873 5870 5866 5862 5858 5853 5848 5843 5837 5831 5825 5819 5813 5805 5796 5787 5778 5768 5757 5745 5733 5719 5704 5687 5669 5650 5628 5606 5584 5565 5547 5531 5514 5498 5480 5464 5448 5433 5419 5406 5396 5391 5388 5387
5886 5884 5881 5878 5874 5871 5868 5863 5859 5854 5850 5844 5839 5833 5827 5820 5814 5806 5798 5789 5779 5769 5759 5747 5735 5721 5707 5691 5674 5655 5634 5612 5590 5569 5549 5531 5515 5498 5480 5461 5444 5426 5409 5392 5377 5365 5357 5354 5353
5885 5882 5880 5877 5873 5869 5866 5862 5857 5852 5846 5841 5835 5828 5822 5815 5807 5799 5790 5781 5771 5761 5750 5738 5725 5711 5695 5678 5660 5640 5618 5595 5574 5554 5536 5518 5500 5481 5462 5443 5424 5404 5384 5368 5353 5339 5329 5323 5322
5884 5881 5878 5874 5871 5867 5864 5860 5854 5849 5843 5837 5831 5824 5816 5809 5801 5793 5784 5774 5763 5753 5741 5729 5715 5700 5684 5666 5647 5627 5605 5583 5562 5542 5523 5505 5486 5467 5447 5428 5407 5385 5365 5348 5334 5319 5307 5299 5296
5883 5880 5877 5873 5869 5866 5862 5857 5853 5846 5840 5834 5827 5819 5811 5803 5795 5786 5777 5766 5756 5744 5732 5719 5705 5689 5673 5655 5635 5614 5592 5570 5549 5531 5512 5494 5474 5454 5434 5414 5392 5370 5351 5335 5320 5306 5293 5282 5276
5882 5880 5876 5873 5869 5865 5860 5856 5850 5844 5838 5831 5823 5815 5807 5799 5790 5780 5770 5759 5748 5736 5723 5709 5694 5678 5662 5643 5623 5602 5580 5559 5539 5521 5503 5484 5464 5444 5424 5403 5380 5359 5342 5327 5312 5299 5285 5274 5267
5881 5879 5876 5871 5867 5864 5859 5853 5849 5842 5835 5827 5819 5811 5803 5794 5784 5774 5763 5751 5739 5727 5714 5700 5684 5668 5651 5632 5612 5591 5570 5549 5530 5512 5494 5475 5456 5436 5417 5395 5373 5352 5336 5322 5309 5297 5285 5273 5265
5879 5877 5874 5870 5865 5862 5856 5851 5846 5839 5831 5823 5816 5808 5799 5789 5779 5768 5756 5744 5731 5719 5705 5691 5675 5659 5641 5622 5602 5582 5561 5540 5522 5504 5486 5467 5448 5428 5409 5387 5366 5347 5332 5320 5309 5298 5287 5278 5270
5877 5874 5871 5868 5864 5859 5854 5849 5842 5835 5828 5821 5813 5804 5794 5784 5773 5761 5749 5736 5724 5711 5697 5683 5667 5651 5633 5614 5594 5574 5553 5533 5515 5497 5479 5460 5441 5422 5403 5382 5362 5343 5330 5318 5309 5300 5291 5283 5277
5875 5872 5869 5865 5860 5856 5851 5845 5839 5831 5825 5817 5809 5799 5790 5779 5768 5756 5743 5730 5717 5704 5690 5675 5659 5643 5625 5607 5587 5567 5546 5526 5509 5491 5473 5455 5437 5418 5400 5380 5360 5341 5328 5317 5308 5300 5293 5287 5281
5872 5869 5865 5861 5856 5851 5846 5843 5836 5829 5821 5814 5805 5795 5785 5774 5762 5750 5737 5724 5710 5697 5683 5669 5653 5636 5618 5600 5580 5560 5540 5521 5504 5486 5469 5452 5434 5416 5398 5378 5359 5341 5327 5315 5306 5299 5293 5287 5282
5868 5865 5862 5859 5854 5848 5844 5841 5832 5825 5817 5809 5801 5791 5781 5770 5758 5745 5732 5718 5704 5691 5677 5662 5646 5629 5612 5594 5575 5555 5535 5517 5500 5483 5466 5449 5431 5414 5396 5378 5359 5341 5326 5314 5304 5297 5291 5285 5281